Location: Killam
(52.7910°N, 111.8608°W)
Time: 22:14:08
(UTC+00:00)

Vanguard 3 - Pass Details

Date: 21 February 2026
Orbit: 507 x 3205 km, 33.4° (Epoch: 11 March)

Event Time Altitude Azimuth Distance (km) Brightness Sun altitude
Rises 22:07:30 0° 220° (SW) 6,268 13.3 19.6°
Reaches altitude 10° 22:13:56 10° 205° (SSW) 4,711 12.9 19.0°
Maximum altitude 22:21:02 18° 170° (S) 3,415 11.0 18.3°
Drops below altitude 10° 22:26:23 10° 133° (SE) 3,381 10.4 17.7°
Sets 22:29:53 0° 113° (ESE) 3,936 10.5 17.4°
